When you browse on this site, cookies collect data to enhance your experience and personalize the content and advertising you see.
Visit our Privacy Policy to learn more. By continuing to use the site, you agree to this use of cookies and data.
  • In United Kingdom
  • List of Countries
  • For 7 days
  • Water Temperature
  • Weather Map
  • Weather Widgets
  • user-avatar
    Login

    Hourly Weather Samak

    Today, 23 August, Friday

    Time Temperature Precipitation Wind Pressure Humidity
    00:00 +23°C° 0 mm 2 mps 671 mmHg 39%
    01:00 +23°C° 0 mm 2 mps 671 mmHg 40%
    02:00 +21°C° 0 mm 2 mps 671 mmHg 41%
    03:00 +21°C° 0 mm 2 mps 671 mmHg 42%
    04:00 +20°C° 0 mm 2 mps 672 mmHg 42%
    05:00 +24°C° 0 mm 2 mps 672 mmHg 37%
    06:00 +26°C° 0 mm 2 mps 673 mmHg 31%
    07:00 +28°C° 0 mm 1 mps 673 mmHg 26%
    08:00 +29°C° 0 mm 2 mps 674 mmHg 24%
    09:00 +31°C° 0 mm 3 mps 674 mmHg 22%
    10:00 +33°C° 0 mm 3 mps 675 mmHg 20%
    11:00 +34°C° 0 mm 4 mps 675 mmHg 19%
    12:00 +34°C° 0 mm 4 mps 674 mmHg 18%
    13:00 +35°C° 0 mm 4 mps 674 mmHg 17%
    14:00 +34°C° 0 mm 5 mps 674 mmHg 17%
    15:00 +34°C° 0 mm 6 mps 674 mmHg 18%
    16:00 +33°C° 0 mm 6 mps 674 mmHg 18%
    17:00 +29°C° 0 mm 5 mps 673 mmHg 22%
    18:00 +26°C° 0 mm 3 mps 672 mmHg 26%
    19:00 +22°C° 0 mm 1 mps 672 mmHg 31%
    20:00 +22°C° 0 mm 1 mps 672 mmHg 32%
    21:00 +21°C° 0 mm 1 mps 672 mmHg 34%
    22:00 +20°C° 0 mm 1 mps 672 mmHg 36%
    23:00 +20°C° 0 mm 1 mps 671 mmHg 37%

    Tomorrow, 24 August, Saturday

    Time Temperature Precipitation Wind Pressure Humidity
    00:00 +20°C° 0 mm 1 mps 671 mmHg 38%
    01:00 +19°C° 0 mm 1 mps 671 mmHg 39%
    02:00 +19°C° 0 mm 1 mps 671 mmHg 41%
    03:00 +19°C° 0 mm 1 mps 671 mmHg 42%
    04:00 +19°C° 0 mm 1 mps 671 mmHg 44%
    05:00 +21°C° 0 mm 1 mps 672 mmHg 38%
    06:00 +24°C° 0 mm 1 mps 673 mmHg 31%
    07:00 +26°C° 0 mm 1 mps 674 mmHg 25%
    08:00 +27°C° 0 mm 1 mps 674 mmHg 23%
    09:00 +29°C° 0 mm 2 mps 675 mmHg 21%
    10:00 +30°C° 0 mm 2 mps 676 mmHg 18%
    11:00 +31°C° 0 mm 3 mps 675 mmHg 18%
    12:00 +33°C° 0 mm 3 mps 675 mmHg 18%
    13:00 +34°C° 0 mm 4 mps 675 mmHg 17%
    14:00 +34°C° 0 mm 4 mps 675 mmHg 18%
    15:00 +33°C° 0 mm 4 mps 674 mmHg 18%
    16:00 +33°C° 0 mm 4 mps 674 mmHg 19%
    17:00 +29°C° 0 mm 3 mps 673 mmHg 24%
    18:00 +27°C° 0 mm 2 mps 673 mmHg 29%
    19:00 +24°C° 0 mm 2 mps 672 mmHg 35%
    20:00 +23°C° 0 mm 2 mps 672 mmHg 36%
    21:00 +23°C° 0 mm 2 mps 672 mmHg 37%
    22:00 +21°C° 0 mm 2 mps 672 mmHg 38%
    23:00 +21°C° 0 mm 2 mps 672 mmHg 37%

    Day after tomorrow, 25 August, Sunday

    Time Temperature Precipitation Wind Pressure Humidity
    00:00 +21°C° 0 mm 2 mps 672 mmHg 35%
    01:00 +21°C° 0 mm 2 mps 671 mmHg 33%
    02:00 +21°C° 0 mm 2 mps 671 mmHg 33%
    03:00 +21°C° 0 mm 2 mps 671 mmHg 33%
    04:00 +20°C° 0 mm 2 mps 671 mmHg 32%
    05:00 +24°C° 0 mm 1 mps 672 mmHg 28%
    06:00 +26°C° 0 mm 1 mps 673 mmHg 23%
    07:00 +28°C° 0 mm 1 mps 674 mmHg 19%
    08:00 +30°C° 0 mm 1 mps 674 mmHg 18%
    09:00 +31°C° 0 mm 2 mps 674 mmHg 17%
    10:00 +34°C° 0 mm 3 mps 674 mmHg 16%
    11:00 +34°C° 0 mm 3 mps 674 mmHg 16%
    12:00 +35°C° 0 mm 4 mps 674 mmHg 16%
    13:00 +36°C° 0 mm 4 mps 674 mmHg 15%
    14:00 +35°C° 0 mm 4 mps 673 mmHg 15%
    15:00 +35°C° 0 mm 4 mps 673 mmHg 15%
    16:00 +35°C° 0 mm 4 mps 673 mmHg 15%
    17:00 +31°C° 0 mm 3 mps 672 mmHg 19%
    18:00 +28°C° 0 mm 2 mps 671 mmHg 23%
    19:00 +25°C° 0 mm 1 mps 671 mmHg 26%
    20:00 +24°C° 0 mm 1 mps 671 mmHg 27%
    21:00 +24°C° 0 mm 1 mps 671 mmHg 27%
    22:00 +24°C° 0 mm 2 mps 671 mmHg 28%
    23:00 +23°C° 0 mm 2 mps 671 mmHg 30%

    26 August, Monday

    Time Temperature Precipitation Wind Pressure Humidity
    00:00 +23°C° 0 mm 2 mps 671 mmHg 31%
    01:00 +23°C° 0 mm 2 mps 671 mmHg 32%
    02:00 +23°C° 0 mm 2 mps 671 mmHg 33%
    03:00 +22°C° 0 mm 1 mps 671 mmHg 33%
    04:00 +22°C° 0 mm 1 mps 671 mmHg 34%
    05:00 +24°C° 0 mm 1 mps 672 mmHg 28%
    06:00 +27°C° 0 mm 1 mps 672 mmHg 23%
    07:00 +27°C° 0 mm 0 mps 673 mmHg 17%
    08:00 +31°C° 0 mm 1 mps 674 mmHg 16%
    09:00 +32°C° 0 mm 2 mps 674 mmHg 15%
    10:00 +35°C° 0 mm 3 mps 674 mmHg 14%
    11:00 +35°C° 0 mm 4 mps 674 mmHg 14%
    12:00 +36°C° 0 mm 4 mps 674 mmHg 14%
    13:00 +36°C° 0 mm 4 mps 674 mmHg 13%
    14:00 +36°C° 0 mm 4 mps 674 mmHg 13%
    15:00 +36°C° 0 mm 4 mps 673 mmHg 13%
    16:00 +35°C° 0 mm 5 mps 673 mmHg 13%
    17:00 +31°C° 0 mm 3 mps 673 mmHg 17%
    18:00 +28°C° 0 mm 2 mps 672 mmHg 21%
    19:00 +25°C° 0 mm 1 mps 671 mmHg 24%
    20:00 +24°C° 0 mm 1 mps 671 mmHg 26%
    21:00 +24°C° 0 mm 1 mps 671 mmHg 27%
    22:00 +23°C° 0 mm 1 mps 671 mmHg 28%
    23:00 +23°C° 0 mm 1 mps 671 mmHg 29%

    27 August, Tuesday

    Time Temperature Precipitation Wind Pressure Humidity
    00:00 +23°C° 0 mm 1 mps 671 mmHg 29%
    01:00 +22°C° 0 mm 1 mps 671 mmHg 30%
    02:00 +22°C° 0 mm 1 mps 671 mmHg 31%
    03:00 +22°C° 0 mm 1 mps 671 mmHg 32%
    04:00 +22°C° 0 mm 1 mps 671 mmHg 32%
    05:00 +24°C° 0 mm 1 mps 672 mmHg 28%
    06:00 +27°C° 0 mm 1 mps 673 mmHg 23%
    07:00 +29°C° 0 mm 1 mps 674 mmHg 18%
    08:00 +30°C° 0 mm 2 mps 674 mmHg 16%
    09:00 +33°C° 0 mm 3 mps 675 mmHg 15%
    10:00 +34°C° 0 mm 3 mps 675 mmHg 13%
    11:00 +35°C° 0 mm 4 mps 675 mmHg 13%
    12:00 +36°C° 0 mm 4 mps 675 mmHg 12%
    13:00 +36°C° 0 mm 5 mps 675 mmHg 12%
    14:00 +36°C° 0 mm 5 mps 674 mmHg 12%
    15:00 +35°C° 0 mm 5 mps 674 mmHg 12%
    16:00 +35°C° 0 mm 5 mps 674 mmHg 12%
    17:00 +30°C° 0 mm 3 mps 673 mmHg 16%
    18:00 +27°C° 0 mm 2 mps 672 mmHg 20%
    19:00 +24°C° 0 mm 1 mps 672 mmHg 24%
    20:00 +23°C° 0 mm 1 mps 672 mmHg 25%
    21:00 +23°C° 0 mm 2 mps 672 mmHg 25%
    22:00 +23°C° 0 mm 2 mps 672 mmHg 26%
    23:00 +21°C° 0 mm 2 mps 672 mmHg 27%

    28 August, Wednesday

    Time Temperature Precipitation Wind Pressure Humidity
    00:00 +21°C° 0 mm 2 mps 672 mmHg 28%
    01:00 +21°C° 0 mm 2 mps 672 mmHg 29%
    02:00 +21°C° 0 mm 2 mps 672 mmHg 29%
    03:00 +20°C° 0 mm 2 mps 672 mmHg 30%
    04:00 +20°C° 0 mm 2 mps 672 mmHg 31%
    05:00 +23°C° 0 mm 2 mps 673 mmHg 27%
    06:00 +26°C° 0 mm 2 mps 674 mmHg 23%
    07:00 +28°C° 0 mm 1 mps 674 mmHg 19%
    08:00 +30°C° 0 mm 2 mps 674 mmHg 18%
    09:00 +31°C° 0 mm 2 mps 675 mmHg 16%
    10:00 +34°C° 0 mm 3 mps 675 mmHg 15%
    11:00 +34°C° 0 mm 3 mps 675 mmHg 14%
    12:00 +35°C° 0 mm 4 mps 674 mmHg 13%
    13:00 +36°C° 0 mm 4 mps 674 mmHg 13%
    14:00 +35°C° 0 mm 4 mps 674 mmHg 13%
    15:00 +35°C° 0 mm 4 mps 673 mmHg 13%
    16:00 +35°C° 0 mm 4 mps 673 mmHg 14%
    17:00 +31°C° 0 mm 3 mps 672 mmHg 19%
    18:00 +27°C° 0 mm 2 mps 672 mmHg 24%
    19:00 +24°C° 0 mm 2 mps 671 mmHg 30%
    20:00 +23°C° 0 mm 2 mps 671 mmHg 31%
    21:00 +23°C° 0 mm 2 mps 672 mmHg 33%
    22:00 +21°C° 0 mm 2 mps 672 mmHg 35%
    23:00 +21°C° 0 mm 2 mps 672 mmHg 33%
    Show more